Location: Unnamed
(40.4914°N, 3.3751°W)
Time: 21:03:05
(UTC+01:00)

ISS - Pass Details

Date: 03 October 2022
Orbit: 415 x 420 km, 51.6° (Epoch: 30 November)

Event Time Altitude Azimuth Distance (km) Brightness Sun altitude
Rises 20:13:54 0° 311° (NW) 2,371 0.9 -4.9°
Reaches altitude 10° 20:16:07 10° 321° (NW) 1,504 -0.4 -5.3°
Maximum altitude 20:19:15 34° 28° (NNE) 712 -2.8 -5.9°
Drops below altitude 10° 20:22:21 10° 96° (E) 1,496 -1.6 -6.5°
Enters shadow 20:22:42 - 98° (E) 1,626 -1.4 -6.6°
